Regional Weather Roundup
Issued by NWS

Home | Current Version | Previous Version | Text Only | Print | Product List | Glossary Off
Versions: 1 2 3 4 5 6 7 8 9 10 11 12 13 14 15 16 17 18 19 20 21 22 23 24 25 26 27 28 29 30 31 32 33 34 35 36 37 38 39 40 41 42 43 44 45 46 47 48 49 50

000
ASUS43 KDTX 010410
RWRMI
MICHIGAN HOURLY REGIONAL WEATHER ROUNDUP
NATIONAL WEATHER SERVICE DETROIT/PONTIAC MI
1200 AM EDT SUN MAY 01 2016

NOTE: "FAIR" INDICATES FEW OR NO CLOUDS BELOW 12,000 FEET WITH NO
SIGNIFICANT WEATHER AND/OR OBSTRUCTION TO VISIBILITY.

MIZ047>049-052>055-059>063-066>070-074>076-081>083-010500-
SOUTHEAST LOWER MICHIGAN

CITY           SKY/WX    TMP DP  RH WIND       PRES   REMARKS
ADRIAN         LGT RAIN  48  46  93 NE8       29.95S
ALMA           RAIN      43  41  92 NE9       30.05S
ANN ARBOR      LGT RAIN  48  47  96 NE8       29.95F
BAD AXE        LGT RAIN  44  40  85 CALM      30.06S
CARO           LGT RAIN  43  40  90 NE5       30.03F
DETROIT CITY   RAIN      48  46  93 E13       29.97F FOG
DETROIT        RAIN      49  47  93 NE7       29.96F FOG
FLINT          RAIN      46  42  86 NE8       30.02S FOG
GROSSE ILE     LGT RAIN  48  46  93 E10G18    29.94F
HILLSDALE      LGT RAIN  47  47 100 NE7       29.94S
HOWELL         RAIN      46  46  97 NE7       29.98S

CITY           SKY/WX    TMP DP  RH WIND       PRES   REMARKS
JACKSON        LGT RAIN  47  46  97 NE7       29.96S FOG
LAMBERTVILLE   RAIN      50  48  93 E6        29.93F
LANSING        LGT RAIN  46  44  93 NE9       30.01S FOG
LAPEER         LGT RAIN  44  43  97 NE3       30.01F
MASON          RAIN      47  46  94 NE7       29.98S
MONROE         RAIN      49  48  99 E10G18    29.93F
MT. CLEMENS    LGT RAIN  48  48 100 NE10      29.97F FOG
PONTIAC        LGT RAIN  46  45  96 NE8       29.98F FOG
PORT HOPE        N/A     42  39  89 CALM      30.05S
PORT HURON     LGT RAIN  46  45  93 E8        30.01F
TRI CITIES     LGT RAIN  46  41  82 N8        30.06S
MIDLAND        LGT RAIN  42  40  91 N3        30.07S
TROY           RAIN      47  46  97 NE9       29.99F
SAGINAW HB     LGT RAIN  43  39  87 N7        30.04F
$$
MIZ043>046-050>051-056>058-064>065-071>073-077>080-010500-
SOUTHWEST LOWER MICHIGAN

CITY           SKY/WX    TMP DP  RH WIND       PRES   REMARKS
BATTLE CREEK   CLOUDY    47  45  93 NE10      29.96F
BENTON HARBOR  CLOUDY    49  47  93 NE7G17    29.92F FOG
BIG RAPIDS     LGT RAIN  43  37  79 E7        30.05F
COLDWATER      LGT RAIN  47  46  98 NE10      29.93F
FREMONT        RAIN      44  43  96 NE13G21   30.02F
HOLLAND        CLOUDY    48  47  96 NE9       29.98F
GRAND RAPIDS   LGT RAIN  48  46  93 E13G23    29.98F FOG
IONIA          RAIN      46  45  97 NE12      30.01S
KALAMAZOO      LGT RAIN  49  45  86 E8        29.94F FOG
LUDINGTON      DRIZZLE   45  43  95 E5        30.05F
MARSHALL       RAIN      47  46  95 NE3       29.95F
MOUNT PLEASANT LGT RAIN  42  38  88 NE5       30.06S
MUSKEGON       LGT RAIN  47  43  86 NE10      30.01R
SOUTH HAVEN    CLOUDY    48  47  98 NE8       29.93F FOG
$$
MIZ016>042-010500-
NORTHERN LOWER MICHIGAN

CITY           SKY/WX    TMP DP  RH WIND       PRES   REMARKS
ALPENA         CLOUDY    46  30  53 NE5       30.10F
BEAVER ISLAND  CLOUDY    43  36  74 NE6       30.13F
BELLAIRE       CLOUDY    51  25  37 NE5       30.08F
CADILLAC       CLOUDY    46  36  69 E7        30.05F
CHARLEVOIX     CLOUDY    46  30  54 NE6       30.13F
FRANKFORT      CLOUDY    52  34  50 E3        30.05F
GAYLORD        CLOUDY    48  24  39 E5        30.08F
GRAYLING       CLOUDY    48  25  40 NE5       30.08F
HARBOR SPRINGS CLOUDY    48  26  42 NE7       30.11F
HOUGHTON LAKE  CLOUDY    47  30  51 E5        30.08S
MANISTEE       CLOUDY    50  34  53 SE3       30.06F
OSCODA         LGT RAIN  47  30  50 N6        30.08S
PELLSTON       CLOUDY    43  30  60 N3        30.13S
ROGERS CITY    CLOUDY    41  34  77 CALM      30.13S
TRAVERSE CITY  CLOUDY    48  37  65 CALM      30.06F
$$
MIZ007>008-015-010500-
EASTERN UPPER MICHIGAN

CITY           SKY/WX    TMP DP  RH WIND       PRES   REMARKS
KINROSS          N/A     41  36  81 N6        30.14S
MACKINAC ISLAN CLOUDY    43  33  68 N7        30.12S
NEWBERRY       CLOUDY    39  34  82 NW3       30.14F
S. S. MARIE    MOCLDY    40  34  79 CALM      30.14F
MUNISING         N/A     35  32  88 CALM      30.16F
$$
MIZ004>006-011>014-085-010500-
CENTRAL UPPER MICHIGAN

CITY           SKY/WX    TMP DP  RH WIND       PRES   REMARKS
MANISTIQUE     MOCLDY    41  34  78 N9        30.12F
ESCANABA       CLOUDY    43  32  65 N7        30.12F
MENOMINEE      CLOUDY    45  30  57 NE13G18   30.09F
SAWYER-GWINN   PTCLDY    37  33  85 N10       30.14F WCI  30
$$
MIZ001>003-009>011-084-010500-
WESTERN UPPER MICHIGAN

CITY           SKY/WX    TMP DP  RH WIND       PRES   REMARKS
IRON MOUNTAIN  CLOUDY    41  32  70 N7        30.12F
HOUGHTON       CLOUDY    41  33  73 NE13      30.20F
COPPER HARBOR    N/A     41  36  82 E8        30.23F
IRONWOOD         N/A     37  32  81 E3        30.17F
$$

ABBREVIATIONS USED IN REMARKS
   TC - TEMPERATURE IN CELSIUS
  WCI - WIND CHILL INDEX
   HX - HEAT INDEX
  VSB - VISIBILITY




USA.gov is the U.S. government's official web portal to all federal, state and local government web resources and services.